Clovis, NM

12:31 AM MST on November 22, 2017 (GMT -0700)
Clovis Municipal

Weather History for KCVN - March, 2014

Change the Weather History Date:

Wednesday, March 12, 2014

  Actual Average Record
Temperature  
Mean Temperature 40 °F -  
Max Temperature 51 °F 62 °F 91 °F (1989)
Min Temperature 28 °F 32 °F 2 °F (1948)
Degree Days  
Heating Degree Days 26    
Moisture  
Dew Point 17 °F    
Average Humidity 43    
Maximum Humidity 69    
Minimum Humidity 24    
Precipitation  
Precipitation 0.00 in - - ()
Sea Level Pressure  
Sea Level Pressure 30.34 in    
Wind  
Wind Speed 19 mph (NNW)    
Max Wind Speed 38 mph    
Max Gust Speed 51 mph    
Visibility 10 miles    
Events      
Averages and records for this station are not official NWS values.
T = Trace of Precipitation, MM = Missing Value Source: NWS Daily Summary

Daily Weather History Graph

Daily Weather History Graph

Search for Another Location

Airport or City:

Trip Planner

Search our weather history database for the weather conditions in past years. The results will help you decide how hot, cold, wet, or windy it might be!

Date:

Astronomy

Mar. 12, 2014 Rise Set
Actual Time 7:06 AM MDT 6:57 PM MDT
Civil Twilight 6:41 AM MDT 7:22 PM MDT
Nautical Twilight 6:12 AM MDT 7:51 PM MDT
Astronomical Twilight 5:43 AM MDT 8:21 PM MDT
Moon 3:37 PM MDT (3/12) 4:32 AM MDT (3/12)
Length of Visible Light 12h 40m
Length of Day
11h 50m
Waxing Gibbous, 86% of the Moon is Illuminated
Mar 12
Waxing Gibbous
Mar 16
Full
Mar 23
Last Quarter
Mar 30
New
Apr 7
First Quarter

Hourly Weather History & Observations

Time (MDT) Temp. Windchill Dew Point Humidity Pressure Visibility Wind Dir Wind Speed Gust Speed Precip Events Conditions
12:15 AM 37.4 °F 23.6 °F 21.2 °F 52% 30.22 in 6.0 mi NNE 38.0 mph 50.6 mph N/A   Scattered Clouds
12:35 AM 37.4 °F 24.2 °F 21.2 °F 52% 30.23 in 8.0 mi NNE 34.5 mph 46.0 mph N/A   Clear
12:55 AM 37.4 °F 24.6 °F 21.2 °F 52% 30.24 in 10.0 mi NNE 32.2 mph 41.4 mph N/A   Clear
1:15 AM 35.6 °F 22.3 °F 21.2 °F 56% 30.25 in 10.0 mi NNE 31.1 mph 42.6 mph N/A   Clear
1:35 AM 35.6 °F 22.5 °F 21.2 °F 56% 30.25 in 10.0 mi NNE 29.9 mph 36.8 mph N/A   Clear
1:55 AM 35.6 °F 23.0 °F 21.2 °F 56% 30.26 in 10.0 mi NNE 27.6 mph 38.0 mph N/A   Clear
2:15 AM 33.8 °F 21.0 °F 21.2 °F 60% 30.26 in 10.0 mi NNE 25.3 mph 33.4 mph N/A   Clear
2:35 AM 33.8 °F 20.8 °F 21.2 °F 60% 30.26 in 10.0 mi North 26.5 mph 32.2 mph N/A   Clear
2:55 AM 33.8 °F 21.6 °F 21.2 °F 60% 30.28 in 10.0 mi North 23.0 mph 32.2 mph N/A   Clear
3:15 AM 33.8 °F 21.0 °F 21.2 °F 60% 30.28 in 10.0 mi North 25.3 mph 29.9 mph N/A   Clear
3:35 AM 32.0 °F 18.6 °F 19.4 °F 60% 30.27 in 10.0 mi North 25.3 mph 32.2 mph N/A   Clear
3:55 AM 32.0 °F 19.8 °F 21.2 °F 64% 30.28 in 10.0 mi North 20.7 mph - N/A   Clear
4:15 AM 32.0 °F 19.2 °F 21.2 °F 64% 30.29 in 10.0 mi North 23.0 mph 31.1 mph N/A   Clear
4:35 AM 30.2 °F 16.8 °F 21.2 °F 69% 30.29 in 10.0 mi North 23.0 mph - N/A   Clear
4:55 AM 30.2 °F 17.1 °F 19.4 °F 64% 30.30 in 10.0 mi North 21.9 mph 28.8 mph N/A   Clear
5:15 AM 30.2 °F 17.1 °F 19.4 °F 64% 30.31 in 10.0 mi North 21.9 mph - N/A   Clear
5:35 AM 30.2 °F 18.1 °F 19.4 °F 64% 30.32 in 10.0 mi North 18.4 mph - N/A   Clear
5:55 AM 30.2 °F 18.9 °F 19.4 °F 64% 30.32 in 10.0 mi North 16.1 mph - N/A   Clear
6:15 AM 30.2 °F 19.3 °F 21.2 °F 69% 30.34 in 10.0 mi North 15.0 mph - N/A   Clear
6:35 AM 30.2 °F 19.3 °F 21.2 °F 69% 30.35 in 10.0 mi North 15.0 mph - N/A   Clear
6:55 AM 28.4 °F 17.5 °F 19.4 °F 69% 30.36 in 10.0 mi North 13.8 mph - N/A   Clear
7:15 AM 28.4 °F 17.5 °F 19.4 °F 69% 30.36 in 10.0 mi North 13.8 mph - N/A   Clear
7:35 AM 28.4 °F 18.0 °F 19.4 °F 69% 30.37 in 10.0 mi North 12.7 mph - N/A   Clear
7:55 AM 30.2 °F 20.8 °F 19.4 °F 64% 30.39 in 10.0 mi North 11.5 mph - N/A   Clear
8:15 AM 32.0 °F 21.6 °F 21.2 °F 64% 30.41 in 10.0 mi North 15.0 mph - N/A   Clear
8:35 AM 33.8 °F 22.8 °F 21.2 °F 60% 30.42 in 10.0 mi North 18.4 mph - N/A   Clear
8:55 AM 35.6 °F 25.2 °F 21.2 °F 56% 30.43 in 10.0 mi NNE 18.4 mph 21.9 mph N/A   Clear
9:15 AM 37.4 °F 27.8 °F 21.2 °F 52% 30.44 in 10.0 mi North 17.3 mph - N/A   Clear
9:35 AM 37.4 °F 28.2 °F 21.2 °F 52% 30.44 in 10.0 mi NNE 16.1 mph 21.9 mph N/A   Clear
9:55 AM 39.2 °F 31.2 °F 19.4 °F 45% 30.44 in 10.0 mi NNE 13.8 mph - N/A   Clear
10:15 AM 41.0 °F 32.8 °F 19.4 °F 42% 30.45 in 10.0 mi North 16.1 mph - N/A   Clear
10:35 AM 41.0 °F 33.9 °F 17.6 °F 39% 30.45 in 10.0 mi NNE 12.7 mph - N/A   Clear
10:55 AM 42.8 °F 35.4 °F 17.6 °F 36% 30.45 in 10.0 mi NNE 15.0 mph - N/A   Clear
11:15 AM 42.8 °F 36.6 °F 15.8 °F 34% 30.45 in 10.0 mi NE 11.5 mph 21.9 mph N/A   Clear
11:35 AM 44.6 °F 37.8 °F 15.8 °F 31% 30.44 in 10.0 mi NNE 15.0 mph 19.6 mph N/A   Clear
11:55 AM 44.6 °F 39.2 °F 15.8 °F 31% 30.44 in 10.0 mi NE 10.4 mph 18.4 mph N/A   Clear
12:15 PM 44.6 °F 38.8 °F 14.0 °F 29% 30.43 in 10.0 mi NE 11.5 mph - N/A   Partly Cloudy
12:35 PM 44.6 °F 41.4 °F 14.0 °F 29% 30.42 in 10.0 mi NE 5.8 mph - N/A   Clear
12:55 PM 46.4 °F 44.3 °F 12.2 °F 25% 30.41 in 10.0 mi North 4.6 mph 16.1 mph N/A   Clear
1:15 PM 46.4 °F 41.5 °F 15.8 °F 29% 30.40 in 10.0 mi North 10.4 mph - N/A   Clear
1:35 PM 46.4 °F 42.4 °F 12.2 °F 25% 30.39 in 10.0 mi NNW 8.1 mph - N/A   Clear
1:55 PM 46.4 °F 41.9 °F 14.0 °F 27% 30.38 in 10.0 mi North 9.2 mph - N/A   Clear
2:15 PM 48.2 °F - 15.8 °F 27% 30.37 in 10.0 mi North 5.8 mph - N/A   Clear
2:35 PM 48.2 °F - 15.8 °F 27% 30.35 in 10.0 mi WNW 10.4 mph - N/A   Clear
2:55 PM 50.0 °F - 15.8 °F 26% 30.34 in 10.0 mi ENE 8.1 mph - N/A   Clear
3:15 PM 48.2 °F - 15.8 °F 27% 30.33 in 10.0 mi North 5.8 mph - N/A   Clear
3:35 PM 48.2 °F - 15.8 °F 27% 30.33 in 10.0 mi North 4.6 mph - N/A   Clear
3:55 PM 50.0 °F - 15.8 °F 26% 30.32 in 10.0 mi NNW 9.2 mph - N/A   Clear
4:15 PM 50.0 °F - 15.8 °F 26% 30.32 in 10.0 mi WNW 5.8 mph - N/A   Clear
4:35 PM 51.8 °F - 15.8 °F 24% 30.31 in 10.0 mi NW 9.2 mph - N/A   Clear
4:55 PM 51.8 °F - 15.8 °F 24% 30.30 in 10.0 mi NW 9.2 mph - N/A   Clear
5:15 PM 51.8 °F - 15.8 °F 24% 30.30 in 10.0 mi WNW 3.5 mph - N/A   Clear
5:35 PM 50.0 °F - 15.8 °F 26% 30.30 in 10.0 mi West 8.1 mph - N/A   Clear
5:55 PM 50.0 °F - 15.8 °F 26% 30.30 in 10.0 mi WNW 4.6 mph - N/A   Clear
6:15 PM 48.2 °F - 15.8 °F 27% 30.30 in 10.0 mi Calm Calm - N/A   Clear
6:35 PM 48.2 °F - 15.8 °F 27% 30.30 in 10.0 mi Calm Calm - N/A   Clear
6:55 PM 46.4 °F 45.2 °F 14.0 °F 27% 30.30 in 10.0 mi WNW 3.5 mph - N/A   Clear
7:15 PM 46.4 °F 45.2 °F 14.0 °F 27% 30.31 in 10.0 mi WNW 3.5 mph - N/A   Clear
7:35 PM 42.8 °F 39.3 °F 12.2 °F 29% 30.31 in 10.0 mi WSW 5.8 mph - N/A   Clear
7:55 PM 42.8 °F 40.1 °F 14.0 °F 31% 30.31 in 10.0 mi WSW 4.6 mph - N/A   Clear
8:15 PM 41.0 °F 38.0 °F 12.2 °F 31% 30.32 in 10.0 mi West 4.6 mph - N/A   Clear
8:35 PM 39.2 °F 35.0 °F 12.2 °F 33% 30.32 in 10.0 mi West 5.8 mph - N/A   Clear
8:55 PM 39.2 °F 35.0 °F 12.2 °F 33% 30.32 in 10.0 mi West 5.8 mph - N/A   Clear
9:15 PM 37.4 °F 32.8 °F 12.2 °F 36% 30.32 in 10.0 mi West 5.8 mph - N/A   Clear
9:35 PM 37.4 °F 32.8 °F 12.2 °F 36% 30.32 in 10.0 mi West 5.8 mph - N/A   Clear
9:55 PM 35.6 °F 30.7 °F 12.2 °F 38% 30.32 in 10.0 mi West 5.8 mph - N/A   Clear
10:15 PM 33.8 °F 27.7 °F 10.4 °F 38% 30.32 in 10.0 mi West 6.9 mph - N/A   Clear
10:35 PM 33.8 °F 27.7 °F 10.4 °F 38% 30.32 in 10.0 mi WNW 6.9 mph - N/A   Clear
10:55 PM 33.8 °F 27.7 °F 12.2 °F 41% 30.31 in 10.0 mi WNW 6.9 mph - N/A   Clear
11:15 PM 32.0 °F 25.6 °F 10.4 °F 41% 30.31 in 10.0 mi West 6.9 mph - N/A   Clear
11:35 PM 30.2 °F 23.4 °F 10.4 °F 44% 30.31 in 10.0 mi West 6.9 mph - N/A   Clear
11:55 PM 30.2 °F 24.3 °F 10.4 °F 44% 30.31 in 10.0 mi West 5.8 mph - N/A   Clear